Showing default

FLYLAB 2, 68503

Orbit data source: Space-Track

FLYLAB 2, 68503 is a payload satellite owned by ONERA (FR) in SSO that was launched on Mon, 30 Mar 2026 UTC via an FALCON 9 launch vehicle from the Air Force Western Test Range (AFWTR). Payload-class satellites include a variety of spacecraft equipped with specific instruments for various scientific and technological missions. These include communications satellites like Starlink; space stations such as the ISS; scientific satellites like the Hubble; Earth observation satellites from companies like Planet Labs, Umbra, and HawkEye 360; GPS; miniature CubeSats for education and research; and military/defense satellites.

Loading next visibility...
Identifier
68503, 2026-067CR
Orbit
SSO
Country
Flag of FRFR
Related business
Manufacturer
NanoAvionics
Mission
Operational spacecraft
Bus & Motor
CUBESAT 6U, Unknown motor
Mass
10 kg wet, ~10 kg dry
Launch date (UTC)
2026-03-30 (3 months ago)
Launch vehicle
FALCON 9
Launch site
Air Force Western Test Range (AFWTR)
Object type
Payload
Rocket body
Debris
Shape & HBR
Unknown shape, 14.5 m
Radar Cross Section
Medium (>0.1 m² and <1 m²)

Expand to show TLE details & history
Last TLE update: 2 days ago

TLE from 2 days ago
0 FLYLAB 2
1 68503U 26067CR  26171.39372561  .00001460  00000-0  15417-3 0  9998
2 68503  97.7570 129.4360 0006767  60.2882 299.9009 14.90767971 12198
Epoch: 2026-06-20T09:26Z
TLE epoch observation values (Epoch: 2026-06-20T09:26:57.892Z)
Latitude
-0.00003°
Longitude
79.0858°
Altitude
596.229 km
Speed
7.563 km/s
True Right ascension
08h 37m 44s
True Declination
0° 00' 00"
Sunlit
Object was in daylight at epoch
Visualization orbit readout
Latitude
Unknown
Longitude
Unknown
Altitude
Unknown
Speed
Unknown
Apparent Right ascension
Unknown
Apparent Declination
Unknown
Sunlit
N/A
Visualization observer readout
Local Sidereal Time
20:10:54
Azimuth
Unknown
Elevation
Unknown
Doppler factor
Unknown
Orbital elements
Apogee altitude
597.277 km
Perigee altitude
587.843 km
Semi-major axis
6,970.697 km
Eccentricity
0.00068
Inclination
97.757°
RAAN
129.436°
Arg. of periapsis
60.2882°
True anomaly
299.83365°
Mean anomaly
299.9009°
Eccentric anomaly
299.86728°
Mean motion
3.72931 °/min
Orbital period
96.53 mins
BSTAR
0.00015417
Loading maneuver chart data...
Computing Atmospheric mass density...
Loading historical data...
Loading historical data...
Loading historical data...
Loading historical data...
Loading historical data...
Loading historical data...
Loading historical data...

Documentation

Showing up to 5 results
|